<?xml version="1.0" encoding="utf-8"?>
<gpx xmlns:xsi="http://www.w3.org/2001/XMLSchema-instance" xmlns:xsd="http://www.w3.org/2001/XMLSchema" version="1.1" creator="Shapelink.com" xmlns="http://www.topografix.com/GPX/1/1" xmlns:gpxtpx="http://www.garmin.com/xmlschemas/TrackPointExtension/v1">
  <metadata>
    <name>Walking 2.54 km, 2019-12-13</name>
    <desc></desc>
    <author><name>Anders Lindh</name></author> 
    <time>1970-01-01T01:00:00Z</time>
  </metadata>
  <trk>
    <name>Walking 2.54 km, 2019-12-13</name>
    <trkseg>
      <trkpt lat="12.672085" lon="101.612494">
        <ele>5</ele>
        <time>1970-01-01T01:00:00Z</time>
      </trkpt>
      <trkpt lat="12.672015" lon="101.612542">
        <ele>5</ele>
        <time>1970-01-01T01:00:00Z</time>
      </trkpt>
      <trkpt lat="12.671934" lon="101.612522">
        <ele>5</ele>
        <time>1970-01-01T01:00:00Z</time>
      </trkpt>
      <trkpt lat="12.671858" lon="101.612487">
        <ele>5</ele>
        <time>1970-01-01T01:00:00Z</time>
      </trkpt>
      <trkpt lat="12.671777" lon="101.61248">
        <ele>5</ele>
        <time>1970-01-01T01:00:00Z</time>
      </trkpt>
      <trkpt lat="12.671694" lon="101.612464">
        <ele>5.09091</ele>
        <time>1970-01-01T01:00:00Z</time>
      </trkpt>
      <trkpt lat="12.671597" lon="101.612476">
        <ele>5.27273</ele>
        <time>1970-01-01T01:00:00Z</time>
      </trkpt>
      <trkpt lat="12.671509" lon="101.61248">
        <ele>5.45455</ele>
        <time>1970-01-01T01:00:00Z</time>
      </trkpt>
      <trkpt lat="12.671427" lon="101.612467">
        <ele>5.63636</ele>
        <time>1970-01-01T01:00:00Z</time>
      </trkpt>
      <trkpt lat="12.671336" lon="101.612465">
        <ele>5.90909</ele>
        <time>1970-01-01T01:00:00Z</time>
      </trkpt>
      <trkpt lat="12.671247" lon="101.612453">
        <ele>6.18182</ele>
        <time>1970-01-01T01:00:00Z</time>
      </trkpt>
      <trkpt lat="12.671163" lon="101.612464">
        <ele>6.45455</ele>
        <time>1970-01-01T01:00:00Z</time>
      </trkpt>
      <trkpt lat="12.671101" lon="101.612522">
        <ele>6.63636</ele>
        <time>1970-01-01T01:00:00Z</time>
      </trkpt>
      <trkpt lat="12.671081" lon="101.612612">
        <ele>6.81818</ele>
        <time>1970-01-01T01:00:00Z</time>
      </trkpt>
      <trkpt lat="12.671081" lon="101.612705">
        <ele>7</ele>
        <time>1970-01-01T01:00:00Z</time>
      </trkpt>
      <trkpt lat="12.671067" lon="101.612796">
        <ele>7.09091</ele>
        <time>1970-01-01T01:00:00Z</time>
      </trkpt>
      <trkpt lat="12.671083" lon="101.612879">
        <ele>7.09091</ele>
        <time>1970-01-01T01:00:00Z</time>
      </trkpt>
      <trkpt lat="12.671063" lon="101.612967">
        <ele>7</ele>
        <time>1970-01-01T01:00:00Z</time>
      </trkpt>
      <trkpt lat="12.671112" lon="101.613035">
        <ele>6.81818</ele>
        <time>1970-01-01T01:00:00Z</time>
      </trkpt>
      <trkpt lat="12.671139" lon="101.613127">
        <ele>6.63636</ele>
        <time>1970-01-01T01:00:00Z</time>
      </trkpt>
      <trkpt lat="12.671154" lon="101.613221">
        <ele>6.45455</ele>
        <time>1970-01-01T01:00:00Z</time>
      </trkpt>
      <trkpt lat="12.671174" lon="101.613312">
        <ele>6.27273</ele>
        <time>1970-01-01T01:00:00Z</time>
      </trkpt>
      <trkpt lat="12.671195" lon="101.613404">
        <ele>6.09091</ele>
        <time>1970-01-01T01:00:00Z</time>
      </trkpt>
      <trkpt lat="12.671213" lon="101.613499">
        <ele>6.09091</ele>
        <time>1970-01-01T01:00:00Z</time>
      </trkpt>
      <trkpt lat="12.671226" lon="101.613586">
        <ele>6.09091</ele>
        <time>1970-01-01T01:00:00Z</time>
      </trkpt>
      <trkpt lat="12.671257" lon="101.613673">
        <ele>6</ele>
        <time>1970-01-01T01:00:00Z</time>
      </trkpt>
      <trkpt lat="12.671251" lon="101.613759">
        <ele>6</ele>
        <time>1970-01-01T01:00:00Z</time>
      </trkpt>
      <trkpt lat="12.671312" lon="101.613825">
        <ele>6</ele>
        <time>1970-01-01T01:00:00Z</time>
      </trkpt>
      <trkpt lat="12.671349" lon="101.613907">
        <ele>6</ele>
        <time>1970-01-01T01:00:00Z</time>
      </trkpt>
      <trkpt lat="12.671365" lon="101.613996">
        <ele>6.09091</ele>
        <time>1970-01-01T01:00:00Z</time>
      </trkpt>
      <trkpt lat="12.6714" lon="101.614071">
        <ele>6.18182</ele>
        <time>1970-01-01T01:00:00Z</time>
      </trkpt>
      <trkpt lat="12.671445" lon="101.61416">
        <ele>6.27273</ele>
        <time>1970-01-01T01:00:00Z</time>
      </trkpt>
      <trkpt lat="12.671484" lon="101.614241">
        <ele>6.36364</ele>
        <time>1970-01-01T01:00:00Z</time>
      </trkpt>
      <trkpt lat="12.671502" lon="101.614333">
        <ele>6.54545</ele>
        <time>1970-01-01T01:00:00Z</time>
      </trkpt>
      <trkpt lat="12.671522" lon="101.614424">
        <ele>6.63636</ele>
        <time>1970-01-01T01:00:00Z</time>
      </trkpt>
      <trkpt lat="12.671565" lon="101.614501">
        <ele>6.72727</ele>
        <time>1970-01-01T01:00:00Z</time>
      </trkpt>
      <trkpt lat="12.671647" lon="101.61449">
        <ele>6.90909</ele>
        <time>1970-01-01T01:00:00Z</time>
      </trkpt>
      <trkpt lat="12.671715" lon="101.614429">
        <ele>7.09091</ele>
        <time>1970-01-01T01:00:00Z</time>
      </trkpt>
      <trkpt lat="12.671756" lon="101.614352">
        <ele>7.27273</ele>
        <time>1970-01-01T01:00:00Z</time>
      </trkpt>
      <trkpt lat="12.671835" lon="101.614301">
        <ele>7.45455</ele>
        <time>1970-01-01T01:00:00Z</time>
      </trkpt>
      <trkpt lat="12.671927" lon="101.614271">
        <ele>7.54545</ele>
        <time>1970-01-01T01:00:00Z</time>
      </trkpt>
      <trkpt lat="12.672014" lon="101.614254">
        <ele>7.63636</ele>
        <time>1970-01-01T01:00:00Z</time>
      </trkpt>
      <trkpt lat="12.672101" lon="101.614217">
        <ele>7.63636</ele>
        <time>1970-01-01T01:00:00Z</time>
      </trkpt>
      <trkpt lat="12.672182" lon="101.614193">
        <ele>7.63636</ele>
        <time>1970-01-01T01:00:00Z</time>
      </trkpt>
      <trkpt lat="12.672272" lon="101.61417">
        <ele>7.54545</ele>
        <time>1970-01-01T01:00:00Z</time>
      </trkpt>
      <trkpt lat="12.67235" lon="101.614145">
        <ele>7.45455</ele>
        <time>1970-01-01T01:00:00Z</time>
      </trkpt>
      <trkpt lat="12.672433" lon="101.614112">
        <ele>7.36364</ele>
        <time>1970-01-01T01:00:00Z</time>
      </trkpt>
      <trkpt lat="12.67251" lon="101.614061">
        <ele>7.18182</ele>
        <time>1970-01-01T01:00:00Z</time>
      </trkpt>
      <trkpt lat="12.6726" lon="101.614014">
        <ele>7</ele>
        <time>1970-01-01T01:00:00Z</time>
      </trkpt>
      <trkpt lat="12.672689" lon="101.613979">
        <ele>6.81818</ele>
        <time>1970-01-01T01:00:00Z</time>
      </trkpt>
      <trkpt lat="12.672774" lon="101.613967">
        <ele>6.63636</ele>
        <time>1970-01-01T01:00:00Z</time>
      </trkpt>
      <trkpt lat="12.672845" lon="101.613926">
        <ele>6.54545</ele>
        <time>1970-01-01T01:00:00Z</time>
      </trkpt>
      <trkpt lat="12.672912" lon="101.613878">
        <ele>6.45455</ele>
        <time>1970-01-01T01:00:00Z</time>
      </trkpt>
      <trkpt lat="12.672999" lon="101.613863">
        <ele>6.36364</ele>
        <time>1970-01-01T01:00:00Z</time>
      </trkpt>
      <trkpt lat="12.673092" lon="101.613855">
        <ele>6.27273</ele>
        <time>1970-01-01T01:00:00Z</time>
      </trkpt>
      <trkpt lat="12.673177" lon="101.61384">
        <ele>6.18182</ele>
        <time>1970-01-01T01:00:00Z</time>
      </trkpt>
      <trkpt lat="12.673263" lon="101.613799">
        <ele>6.09091</ele>
        <time>1970-01-01T01:00:00Z</time>
      </trkpt>
      <trkpt lat="12.673348" lon="101.613785">
        <ele>5.90909</ele>
        <time>1970-01-01T01:00:00Z</time>
      </trkpt>
      <trkpt lat="12.67343" lon="101.613753">
        <ele>5.81818</ele>
        <time>1970-01-01T01:00:00Z</time>
      </trkpt>
      <trkpt lat="12.673499" lon="101.613709">
        <ele>5.72727</ele>
        <time>1970-01-01T01:00:00Z</time>
      </trkpt>
      <trkpt lat="12.673583" lon="101.613673">
        <ele>5.63636</ele>
        <time>1970-01-01T01:00:00Z</time>
      </trkpt>
      <trkpt lat="12.673671" lon="101.613634">
        <ele>5.54545</ele>
        <time>1970-01-01T01:00:00Z</time>
      </trkpt>
      <trkpt lat="12.67375" lon="101.613599">
        <ele>5.45455</ele>
        <time>1970-01-01T01:00:00Z</time>
      </trkpt>
      <trkpt lat="12.673776" lon="101.613514">
        <ele>5.36364</ele>
        <time>1970-01-01T01:00:00Z</time>
      </trkpt>
      <trkpt lat="12.673754" lon="101.613418">
        <ele>5.27273</ele>
        <time>1970-01-01T01:00:00Z</time>
      </trkpt>
      <trkpt lat="12.673722" lon="101.613336">
        <ele>5.18182</ele>
        <time>1970-01-01T01:00:00Z</time>
      </trkpt>
      <trkpt lat="12.67371" lon="101.613247">
        <ele>5.09091</ele>
        <time>1970-01-01T01:00:00Z</time>
      </trkpt>
      <trkpt lat="12.673682" lon="101.613163">
        <ele>5</ele>
        <time>1970-01-01T01:00:00Z</time>
      </trkpt>
      <trkpt lat="12.673608" lon="101.613102">
        <ele>4.90909</ele>
        <time>1970-01-01T01:00:00Z</time>
      </trkpt>
      <trkpt lat="12.673532" lon="101.613068">
        <ele>4.72727</ele>
        <time>1970-01-01T01:00:00Z</time>
      </trkpt>
      <trkpt lat="12.673442" lon="101.61304">
        <ele>4.54545</ele>
        <time>1970-01-01T01:00:00Z</time>
      </trkpt>
      <trkpt lat="12.673363" lon="101.612999">
        <ele>4.36364</ele>
        <time>1970-01-01T01:00:00Z</time>
      </trkpt>
      <trkpt lat="12.673276" lon="101.612968">
        <ele>4.18182</ele>
        <time>1970-01-01T01:00:00Z</time>
      </trkpt>
      <trkpt lat="12.673198" lon="101.612942">
        <ele>4</ele>
        <time>1970-01-01T01:00:00Z</time>
      </trkpt>
      <trkpt lat="12.673107" lon="101.612918">
        <ele>3.90909</ele>
        <time>1970-01-01T01:00:00Z</time>
      </trkpt>
      <trkpt lat="12.673021" lon="101.612887">
        <ele>3.81818</ele>
        <time>1970-01-01T01:00:00Z</time>
      </trkpt>
      <trkpt lat="12.672932" lon="101.612847">
        <ele>3.81818</ele>
        <time>1970-01-01T01:00:00Z</time>
      </trkpt>
      <trkpt lat="12.67285" lon="101.612811">
        <ele>3.81818</ele>
        <time>1970-01-01T01:00:00Z</time>
      </trkpt>
      <trkpt lat="12.672754" lon="101.6128">
        <ele>3.81818</ele>
        <time>1970-01-01T01:00:00Z</time>
      </trkpt>
      <trkpt lat="12.672659" lon="101.612764">
        <ele>3.90909</ele>
        <time>1970-01-01T01:00:00Z</time>
      </trkpt>
      <trkpt lat="12.672577" lon="101.612733">
        <ele>4.09091</ele>
        <time>1970-01-01T01:00:00Z</time>
      </trkpt>
      <trkpt lat="12.67249" lon="101.612714">
        <ele>4.27273</ele>
        <time>1970-01-01T01:00:00Z</time>
      </trkpt>
      <trkpt lat="12.67241" lon="101.612673">
        <ele>4.45455</ele>
        <time>1970-01-01T01:00:00Z</time>
      </trkpt>
      <trkpt lat="12.672325" lon="101.612638">
        <ele>4.63636</ele>
        <time>1970-01-01T01:00:00Z</time>
      </trkpt>
      <trkpt lat="12.672241" lon="101.612619">
        <ele>4.81818</ele>
        <time>1970-01-01T01:00:00Z</time>
      </trkpt>
      <trkpt lat="12.672157" lon="101.612561">
        <ele>4.90909</ele>
        <time>1970-01-01T01:00:00Z</time>
      </trkpt>
      <trkpt lat="12.672083" lon="101.612517">
        <ele>5</ele>
        <time>1970-01-01T01:00:00Z</time>
      </trkpt>
      <trkpt lat="12.671997" lon="101.612502">
        <ele>5</ele>
        <time>1970-01-01T01:00:00Z</time>
      </trkpt>
      <trkpt lat="12.671911" lon="101.612479">
        <ele>5</ele>
        <time>1970-01-01T01:00:00Z</time>
      </trkpt>
      <trkpt lat="12.671824" lon="101.612454">
        <ele>5</ele>
        <time>1970-01-01T01:00:00Z</time>
      </trkpt>
      <trkpt lat="12.671736" lon="101.612449">
        <ele>5.09091</ele>
        <time>1970-01-01T01:00:00Z</time>
      </trkpt>
      <trkpt lat="12.671649" lon="101.612439">
        <ele>5.18182</ele>
        <time>1970-01-01T01:00:00Z</time>
      </trkpt>
      <trkpt lat="12.671553" lon="101.612437">
        <ele>5.36364</ele>
        <time>1970-01-01T01:00:00Z</time>
      </trkpt>
      <trkpt lat="12.671469" lon="101.612442">
        <ele>5.54545</ele>
        <time>1970-01-01T01:00:00Z</time>
      </trkpt>
      <trkpt lat="12.671386" lon="101.612437">
        <ele>5.81818</ele>
        <time>1970-01-01T01:00:00Z</time>
      </trkpt>
      <trkpt lat="12.671296" lon="101.612436">
        <ele>6.09091</ele>
        <time>1970-01-01T01:00:00Z</time>
      </trkpt>
      <trkpt lat="12.671206" lon="101.612466">
        <ele>6.36364</ele>
        <time>1970-01-01T01:00:00Z</time>
      </trkpt>
      <trkpt lat="12.671134" lon="101.612517">
        <ele>6.63636</ele>
        <time>1970-01-01T01:00:00Z</time>
      </trkpt>
      <trkpt lat="12.671084" lon="101.612583">
        <ele>6.81818</ele>
        <time>1970-01-01T01:00:00Z</time>
      </trkpt>
      <trkpt lat="12.671042" lon="101.612656">
        <ele>7</ele>
        <time>1970-01-01T01:00:00Z</time>
      </trkpt>
      <trkpt lat="12.671018" lon="101.612736">
        <ele>7.18182</ele>
        <time>1970-01-01T01:00:00Z</time>
      </trkpt>
      <trkpt lat="12.671033" lon="101.612821">
        <ele>7.18182</ele>
        <time>1970-01-01T01:00:00Z</time>
      </trkpt>
      <trkpt lat="12.671039" lon="101.612909">
        <ele>7.18182</ele>
        <time>1970-01-01T01:00:00Z</time>
      </trkpt>
      <trkpt lat="12.671041" lon="101.612992">
        <ele>7.09091</ele>
        <time>1970-01-01T01:00:00Z</time>
      </trkpt>
      <trkpt lat="12.671063" lon="101.613077">
        <ele>6.90909</ele>
        <time>1970-01-01T01:00:00Z</time>
      </trkpt>
      <trkpt lat="12.671111" lon="101.613151">
        <ele>6.63636</ele>
        <time>1970-01-01T01:00:00Z</time>
      </trkpt>
      <trkpt lat="12.671146" lon="101.613226">
        <ele>6.45455</ele>
        <time>1970-01-01T01:00:00Z</time>
      </trkpt>
      <trkpt lat="12.671171" lon="101.613319">
        <ele>6.27273</ele>
        <time>1970-01-01T01:00:00Z</time>
      </trkpt>
      <trkpt lat="12.671183" lon="101.613416">
        <ele>6.18182</ele>
        <time>1970-01-01T01:00:00Z</time>
      </trkpt>
      <trkpt lat="12.671185" lon="101.613502">
        <ele>6.18182</ele>
        <time>1970-01-01T01:00:00Z</time>
      </trkpt>
      <trkpt lat="12.671217" lon="101.613579">
        <ele>6.18182</ele>
        <time>1970-01-01T01:00:00Z</time>
      </trkpt>
      <trkpt lat="12.67124" lon="101.613665">
        <ele>6.09091</ele>
        <time>1970-01-01T01:00:00Z</time>
      </trkpt>
      <trkpt lat="12.671273" lon="101.613756">
        <ele>6.09091</ele>
        <time>1970-01-01T01:00:00Z</time>
      </trkpt>
      <trkpt lat="12.671299" lon="101.613846">
        <ele>6.09091</ele>
        <time>1970-01-01T01:00:00Z</time>
      </trkpt>
      <trkpt lat="12.671343" lon="101.613933">
        <ele>6.09091</ele>
        <time>1970-01-01T01:00:00Z</time>
      </trkpt>
      <trkpt lat="12.671365" lon="101.614015">
        <ele>6.18182</ele>
        <time>1970-01-01T01:00:00Z</time>
      </trkpt>
      <trkpt lat="12.671394" lon="101.614103">
        <ele>6.27273</ele>
        <time>1970-01-01T01:00:00Z</time>
      </trkpt>
      <trkpt lat="12.671415" lon="101.614189">
        <ele>6.36364</ele>
        <time>1970-01-01T01:00:00Z</time>
      </trkpt>
      <trkpt lat="12.671466" lon="101.614261">
        <ele>6.54545</ele>
        <time>1970-01-01T01:00:00Z</time>
      </trkpt>
      <trkpt lat="12.671523" lon="101.614342">
        <ele>6.63636</ele>
        <time>1970-01-01T01:00:00Z</time>
      </trkpt>
      <trkpt lat="12.671569" lon="101.61442">
        <ele>6.72727</ele>
        <time>1970-01-01T01:00:00Z</time>
      </trkpt>
      <trkpt lat="12.671614" lon="101.614495">
        <ele>6.81818</ele>
        <time>1970-01-01T01:00:00Z</time>
      </trkpt>
      <trkpt lat="12.671709" lon="101.614488">
        <ele>7</ele>
        <time>1970-01-01T01:00:00Z</time>
      </trkpt>
      <trkpt lat="12.671779" lon="101.614428">
        <ele>7.18182</ele>
        <time>1970-01-01T01:00:00Z</time>
      </trkpt>
      <trkpt lat="12.671835" lon="101.614363">
        <ele>7.36364</ele>
        <time>1970-01-01T01:00:00Z</time>
      </trkpt>
      <trkpt lat="12.671918" lon="101.614325">
        <ele>7.54545</ele>
        <time>1970-01-01T01:00:00Z</time>
      </trkpt>
      <trkpt lat="12.672004" lon="101.6143">
        <ele>7.63636</ele>
        <time>1970-01-01T01:00:00Z</time>
      </trkpt>
      <trkpt lat="12.672091" lon="101.614274">
        <ele>7.72727</ele>
        <time>1970-01-01T01:00:00Z</time>
      </trkpt>
      <trkpt lat="12.672174" lon="101.614248">
        <ele>7.72727</ele>
        <time>1970-01-01T01:00:00Z</time>
      </trkpt>
      <trkpt lat="12.672249" lon="101.614199">
        <ele>7.63636</ele>
        <time>1970-01-01T01:00:00Z</time>
      </trkpt>
      <trkpt lat="12.672338" lon="101.614172">
        <ele>7.54545</ele>
        <time>1970-01-01T01:00:00Z</time>
      </trkpt>
      <trkpt lat="12.672423" lon="101.614145">
        <ele>7.45455</ele>
        <time>1970-01-01T01:00:00Z</time>
      </trkpt>
      <trkpt lat="12.672511" lon="101.614119">
        <ele>7.36364</ele>
        <time>1970-01-01T01:00:00Z</time>
      </trkpt>
      <trkpt lat="12.672595" lon="101.614075">
        <ele>7.18182</ele>
        <time>1970-01-01T01:00:00Z</time>
      </trkpt>
      <trkpt lat="12.672683" lon="101.614073">
        <ele>7</ele>
        <time>1970-01-01T01:00:00Z</time>
      </trkpt>
      <trkpt lat="12.672745" lon="101.614011">
        <ele>6.81818</ele>
        <time>1970-01-01T01:00:00Z</time>
      </trkpt>
      <trkpt lat="12.67282" lon="101.613958">
        <ele>6.63636</ele>
        <time>1970-01-01T01:00:00Z</time>
      </trkpt>
      <trkpt lat="12.672901" lon="101.613906">
        <ele>6.54545</ele>
        <time>1970-01-01T01:00:00Z</time>
      </trkpt>
      <trkpt lat="12.672994" lon="101.613878">
        <ele>6.45455</ele>
        <time>1970-01-01T01:00:00Z</time>
      </trkpt>
      <trkpt lat="12.673077" lon="101.613849">
        <ele>6.36364</ele>
        <time>1970-01-01T01:00:00Z</time>
      </trkpt>
      <trkpt lat="12.67316" lon="101.613832">
        <ele>6.27273</ele>
        <time>1970-01-01T01:00:00Z</time>
      </trkpt>
      <trkpt lat="12.673256" lon="101.613821">
        <ele>6.18182</ele>
        <time>1970-01-01T01:00:00Z</time>
      </trkpt>
      <trkpt lat="12.673349" lon="101.61379">
        <ele>6.09091</ele>
        <time>1970-01-01T01:00:00Z</time>
      </trkpt>
      <trkpt lat="12.673434" lon="101.613782">
        <ele>5.90909</ele>
        <time>1970-01-01T01:00:00Z</time>
      </trkpt>
      <trkpt lat="12.673514" lon="101.61376">
        <ele>5.81818</ele>
        <time>1970-01-01T01:00:00Z</time>
      </trkpt>
      <trkpt lat="12.673593" lon="101.613714">
        <ele>5.72727</ele>
        <time>1970-01-01T01:00:00Z</time>
      </trkpt>
      <trkpt lat="12.673679" lon="101.613699">
        <ele>5.63636</ele>
        <time>1970-01-01T01:00:00Z</time>
      </trkpt>
      <trkpt lat="12.673755" lon="101.613646">
        <ele>5.54545</ele>
        <time>1970-01-01T01:00:00Z</time>
      </trkpt>
      <trkpt lat="12.673756" lon="101.613557">
        <ele>5.45455</ele>
        <time>1970-01-01T01:00:00Z</time>
      </trkpt>
      <trkpt lat="12.673743" lon="101.613463">
        <ele>5.36364</ele>
        <time>1970-01-01T01:00:00Z</time>
      </trkpt>
      <trkpt lat="12.67373" lon="101.613378">
        <ele>5.27273</ele>
        <time>1970-01-01T01:00:00Z</time>
      </trkpt>
      <trkpt lat="12.673717" lon="101.613284">
        <ele>5.18182</ele>
        <time>1970-01-01T01:00:00Z</time>
      </trkpt>
      <trkpt lat="12.673692" lon="101.613191">
        <ele>5.09091</ele>
        <time>1970-01-01T01:00:00Z</time>
      </trkpt>
      <trkpt lat="12.673631" lon="101.613114">
        <ele>4.90909</ele>
        <time>1970-01-01T01:00:00Z</time>
      </trkpt>
      <trkpt lat="12.673553" lon="101.613083">
        <ele>4.81818</ele>
        <time>1970-01-01T01:00:00Z</time>
      </trkpt>
      <trkpt lat="12.673464" lon="101.613049">
        <ele>4.63636</ele>
        <time>1970-01-01T01:00:00Z</time>
      </trkpt>
      <trkpt lat="12.673378" lon="101.613006">
        <ele>4.45455</ele>
        <time>1970-01-01T01:00:00Z</time>
      </trkpt>
      <trkpt lat="12.673286" lon="101.61298">
        <ele>4.27273</ele>
        <time>1970-01-01T01:00:00Z</time>
      </trkpt>
      <trkpt lat="12.673212" lon="101.612944">
        <ele>4.09091</ele>
        <time>1970-01-01T01:00:00Z</time>
      </trkpt>
      <trkpt lat="12.673125" lon="101.612907">
        <ele>4</ele>
        <time>1970-01-01T01:00:00Z</time>
      </trkpt>
      <trkpt lat="12.673039" lon="101.612878">
        <ele>3.90909</ele>
        <time>1970-01-01T01:00:00Z</time>
      </trkpt>
      <trkpt lat="12.672956" lon="101.612841">
        <ele>3.90909</ele>
        <time>1970-01-01T01:00:00Z</time>
      </trkpt>
      <trkpt lat="12.672869" lon="101.612804">
        <ele>3.90909</ele>
        <time>1970-01-01T01:00:00Z</time>
      </trkpt>
      <trkpt lat="12.672784" lon="101.61278">
        <ele>3.90909</ele>
        <time>1970-01-01T01:00:00Z</time>
      </trkpt>
      <trkpt lat="12.672699" lon="101.612744">
        <ele>4</ele>
        <time>1970-01-01T01:00:00Z</time>
      </trkpt>
      <trkpt lat="12.672623" lon="101.612709">
        <ele>4.09091</ele>
        <time>1970-01-01T01:00:00Z</time>
      </trkpt>
      <trkpt lat="12.672534" lon="101.612679">
        <ele>4.27273</ele>
        <time>1970-01-01T01:00:00Z</time>
      </trkpt>
      <trkpt lat="12.672463" lon="101.612637">
        <ele>4.45455</ele>
        <time>1970-01-01T01:00:00Z</time>
      </trkpt>
      <trkpt lat="12.672377" lon="101.612604">
        <ele>4.63636</ele>
        <time>1970-01-01T01:00:00Z</time>
      </trkpt>
      <trkpt lat="12.672282" lon="101.612588">
        <ele>4.81818</ele>
        <time>1970-01-01T01:00:00Z</time>
      </trkpt>
      <trkpt lat="12.672193" lon="101.612562">
        <ele>4.90909</ele>
        <time>1970-01-01T01:00:00Z</time>
      </trkpt>
      <trkpt lat="12.672106" lon="101.612532">
        <ele>5</ele>
        <time>1970-01-01T01:00:00Z</time>
      </trkpt>
      <trkpt lat="12.672027" lon="101.612509">
        <ele>5</ele>
        <time>1970-01-01T01:00:00Z</time>
      </trkpt>
      <trkpt lat="12.671938" lon="101.612494">
        <ele>5</ele>
        <time>1970-01-01T01:00:00Z</time>
      </trkpt>
      <trkpt lat="12.671846" lon="101.612484">
        <ele>5</ele>
        <time>1970-01-01T01:00:00Z</time>
      </trkpt>
      <trkpt lat="12.67176" lon="101.612505">
        <ele>5.09091</ele>
        <time>1970-01-01T01:00:00Z</time>
      </trkpt>
      <trkpt lat="12.67167" lon="101.612495">
        <ele>5.18182</ele>
        <time>1970-01-01T01:00:00Z</time>
      </trkpt>
      <trkpt lat="12.671582" lon="101.612489">
        <ele>5.36364</ele>
        <time>1970-01-01T01:00:00Z</time>
      </trkpt>
      <trkpt lat="12.671491" lon="101.612479">
        <ele>5.54545</ele>
        <time>1970-01-01T01:00:00Z</time>
      </trkpt>
      <trkpt lat="12.671402" lon="101.612451">
        <ele>5.81818</ele>
        <time>1970-01-01T01:00:00Z</time>
      </trkpt>
      <trkpt lat="12.671318" lon="101.612452">
        <ele>6.09091</ele>
        <time>1970-01-01T01:00:00Z</time>
      </trkpt>
      <trkpt lat="12.671218" lon="101.612458">
        <ele>6.36364</ele>
        <time>1970-01-01T01:00:00Z</time>
      </trkpt>
      <trkpt lat="12.671138" lon="101.612485">
        <ele>6.54545</ele>
        <time>1970-01-01T01:00:00Z</time>
      </trkpt>
      <trkpt lat="12.671111" lon="101.612568">
        <ele>6.72727</ele>
        <time>1970-01-01T01:00:00Z</time>
      </trkpt>
      <trkpt lat="12.67111" lon="101.612656">
        <ele>6.90909</ele>
        <time>1970-01-01T01:00:00Z</time>
      </trkpt>
      <trkpt lat="12.671106" lon="101.612742">
        <ele>7</ele>
        <time>1970-01-01T01:00:00Z</time>
      </trkpt>
      <trkpt lat="12.671096" lon="101.612844">
        <ele>7</ele>
        <time>1970-01-01T01:00:00Z</time>
      </trkpt>
      <trkpt lat="12.671104" lon="101.612935">
        <ele>7</ele>
        <time>1970-01-01T01:00:00Z</time>
      </trkpt>
      <trkpt lat="12.671129" lon="101.613018">
        <ele>6.90909</ele>
        <time>1970-01-01T01:00:00Z</time>
      </trkpt>
      <trkpt lat="12.671143" lon="101.613108">
        <ele>6.81818</ele>
        <time>1970-01-01T01:00:00Z</time>
      </trkpt>
      <trkpt lat="12.671155" lon="101.613191">
        <ele>6.63636</ele>
        <time>1970-01-01T01:00:00Z</time>
      </trkpt>
      <trkpt lat="12.671181" lon="101.613286">
        <ele>6.45455</ele>
        <time>1970-01-01T01:00:00Z</time>
      </trkpt>
      <trkpt lat="12.671196" lon="101.613373">
        <ele>6.27273</ele>
        <time>1970-01-01T01:00:00Z</time>
      </trkpt>
      <trkpt lat="12.671231" lon="101.61346">
        <ele>6.27273</ele>
        <time>1970-01-01T01:00:00Z</time>
      </trkpt>
      <trkpt lat="12.67125" lon="101.613547">
        <ele>6.27273</ele>
        <time>1970-01-01T01:00:00Z</time>
      </trkpt>
      <trkpt lat="12.671264" lon="101.613643">
        <ele>6.27273</ele>
        <time>1970-01-01T01:00:00Z</time>
      </trkpt>
      <trkpt lat="12.671308" lon="101.613715">
        <ele>6.27273</ele>
        <time>1970-01-01T01:00:00Z</time>
      </trkpt>
      <trkpt lat="12.67136" lon="101.61378">
        <ele>6.27273</ele>
        <time>1970-01-01T01:00:00Z</time>
      </trkpt>
      <trkpt lat="12.6714" lon="101.613869">
        <ele>6.27273</ele>
        <time>1970-01-01T01:00:00Z</time>
      </trkpt>
      <trkpt lat="12.671444" lon="101.61394">
        <ele>6.27273</ele>
        <time>1970-01-01T01:00:00Z</time>
      </trkpt>
      <trkpt lat="12.671465" lon="101.614021">
        <ele>6.27273</ele>
        <time>1970-01-01T01:00:00Z</time>
      </trkpt>
      <trkpt lat="12.671488" lon="101.614101">
        <ele>6.36364</ele>
        <time>1970-01-01T01:00:00Z</time>
      </trkpt>
      <trkpt lat="12.671519" lon="101.614192">
        <ele>6.45455</ele>
        <time>1970-01-01T01:00:00Z</time>
      </trkpt>
      <trkpt lat="12.671549" lon="101.614286">
        <ele>6.63636</ele>
        <time>1970-01-01T01:00:00Z</time>
      </trkpt>
      <trkpt lat="12.671567" lon="101.61437">
        <ele>6.72727</ele>
        <time>1970-01-01T01:00:00Z</time>
      </trkpt>
      <trkpt lat="12.671591" lon="101.614459">
        <ele>6.81818</ele>
        <time>1970-01-01T01:00:00Z</time>
      </trkpt>
      <trkpt lat="12.671668" lon="101.614493">
        <ele>6.90909</ele>
        <time>1970-01-01T01:00:00Z</time>
      </trkpt>
      <trkpt lat="12.671718" lon="101.614427">
        <ele>7.09091</ele>
        <time>1970-01-01T01:00:00Z</time>
      </trkpt>
      <trkpt lat="12.671796" lon="101.614379">
        <ele>7.27273</ele>
        <time>1970-01-01T01:00:00Z</time>
      </trkpt>
      <trkpt lat="12.671868" lon="101.614336">
        <ele>7.45455</ele>
        <time>1970-01-01T01:00:00Z</time>
      </trkpt>
      <trkpt lat="12.671938" lon="101.614293">
        <ele>7.54545</ele>
        <time>1970-01-01T01:00:00Z</time>
      </trkpt>
      <trkpt lat="12.672015" lon="101.614262">
        <ele>7.63636</ele>
        <time>1970-01-01T01:00:00Z</time>
      </trkpt>
      <trkpt lat="12.672091" lon="101.614216">
        <ele>7.63636</ele>
        <time>1970-01-01T01:00:00Z</time>
      </trkpt>
      <trkpt lat="12.672177" lon="101.614188">
        <ele>7.63636</ele>
        <time>1970-01-01T01:00:00Z</time>
      </trkpt>
      <trkpt lat="12.672261" lon="101.614155">
        <ele>7.54545</ele>
        <time>1970-01-01T01:00:00Z</time>
      </trkpt>
      <trkpt lat="12.672346" lon="101.614144">
        <ele>7.45455</ele>
        <time>1970-01-01T01:00:00Z</time>
      </trkpt>
      <trkpt lat="12.672425" lon="101.614115">
        <ele>7.36364</ele>
        <time>1970-01-01T01:00:00Z</time>
      </trkpt>
      <trkpt lat="12.672518" lon="101.614081">
        <ele>7.27273</ele>
        <time>1970-01-01T01:00:00Z</time>
      </trkpt>
      <trkpt lat="12.672599" lon="101.614043">
        <ele>7.09091</ele>
        <time>1970-01-01T01:00:00Z</time>
      </trkpt>
      <trkpt lat="12.672676" lon="101.613998">
        <ele>6.90909</ele>
        <time>1970-01-01T01:00:00Z</time>
      </trkpt>
      <trkpt lat="12.67273" lon="101.613932">
        <ele>6.72727</ele>
        <time>1970-01-01T01:00:00Z</time>
      </trkpt>
      <trkpt lat="12.672815" lon="101.613912">
        <ele>6.63636</ele>
        <time>1970-01-01T01:00:00Z</time>
      </trkpt>
      <trkpt lat="12.672914" lon="101.613889">
        <ele>6.54545</ele>
        <time>1970-01-01T01:00:00Z</time>
      </trkpt>
      <trkpt lat="12.673003" lon="101.613871">
        <ele>6.45455</ele>
        <time>1970-01-01T01:00:00Z</time>
      </trkpt>
      <trkpt lat="12.673083" lon="101.613851">
        <ele>6.36364</ele>
        <time>1970-01-01T01:00:00Z</time>
      </trkpt>
      <trkpt lat="12.673165" lon="101.613832">
        <ele>6.27273</ele>
        <time>1970-01-01T01:00:00Z</time>
      </trkpt>
      <trkpt lat="12.673258" lon="101.613796">
        <ele>6.18182</ele>
        <time>1970-01-01T01:00:00Z</time>
      </trkpt>
      <trkpt lat="12.673349" lon="101.613768">
        <ele>6</ele>
        <time>1970-01-01T01:00:00Z</time>
      </trkpt>
      <trkpt lat="12.673427" lon="101.613728">
        <ele>5.81818</ele>
        <time>1970-01-01T01:00:00Z</time>
      </trkpt>
      <trkpt lat="12.673521" lon="101.613701">
        <ele>5.72727</ele>
        <time>1970-01-01T01:00:00Z</time>
      </trkpt>
      <trkpt lat="12.673602" lon="101.613664">
        <ele>5.63636</ele>
        <time>1970-01-01T01:00:00Z</time>
      </trkpt>
      <trkpt lat="12.673679" lon="101.613634">
        <ele>5.54545</ele>
        <time>1970-01-01T01:00:00Z</time>
      </trkpt>
      <trkpt lat="12.67375" lon="101.61357">
        <ele>5.45455</ele>
        <time>1970-01-01T01:00:00Z</time>
      </trkpt>
      <trkpt lat="12.673736" lon="101.613477">
        <ele>5.36364</ele>
        <time>1970-01-01T01:00:00Z</time>
      </trkpt>
      <trkpt lat="12.673718" lon="101.61339">
        <ele>5.27273</ele>
        <time>1970-01-01T01:00:00Z</time>
      </trkpt>
      <trkpt lat="12.673703" lon="101.613307">
        <ele>5.18182</ele>
        <time>1970-01-01T01:00:00Z</time>
      </trkpt>
      <trkpt lat="12.673681" lon="101.613222">
        <ele>5.09091</ele>
        <time>1970-01-01T01:00:00Z</time>
      </trkpt>
      <trkpt lat="12.67364" lon="101.613141">
        <ele>5</ele>
        <time>1970-01-01T01:00:00Z</time>
      </trkpt>
      <trkpt lat="12.673562" lon="101.613103">
        <ele>4.90909</ele>
        <time>1970-01-01T01:00:00Z</time>
      </trkpt>
      <trkpt lat="12.673474" lon="101.613069">
        <ele>4.72727</ele>
        <time>1970-01-01T01:00:00Z</time>
      </trkpt>
      <trkpt lat="12.673396" lon="101.613027">
        <ele>4.54545</ele>
        <time>1970-01-01T01:00:00Z</time>
      </trkpt>
      <trkpt lat="12.673317" lon="101.612989">
        <ele>4.36364</ele>
        <time>1970-01-01T01:00:00Z</time>
      </trkpt>
      <trkpt lat="12.673237" lon="101.612958">
        <ele>4.18182</ele>
        <time>1970-01-01T01:00:00Z</time>
      </trkpt>
      <trkpt lat="12.673155" lon="101.612932">
        <ele>4</ele>
        <time>1970-01-01T01:00:00Z</time>
      </trkpt>
      <trkpt lat="12.673069" lon="101.612908">
        <ele>3.90909</ele>
        <time>1970-01-01T01:00:00Z</time>
      </trkpt>
      <trkpt lat="12.67298" lon="101.612874">
        <ele>3.90909</ele>
        <time>1970-01-01T01:00:00Z</time>
      </trkpt>
      <trkpt lat="12.672895" lon="101.612846">
        <ele>3.90909</ele>
        <time>1970-01-01T01:00:00Z</time>
      </trkpt>
      <trkpt lat="12.67281" lon="101.612809">
        <ele>3.90909</ele>
        <time>1970-01-01T01:00:00Z</time>
      </trkpt>
      <trkpt lat="12.672732" lon="101.612776">
        <ele>3.90909</ele>
        <time>1970-01-01T01:00:00Z</time>
      </trkpt>
      <trkpt lat="12.672645" lon="101.612765">
        <ele>4</ele>
        <time>1970-01-01T01:00:00Z</time>
      </trkpt>
      <trkpt lat="12.672567" lon="101.612718">
        <ele>4.18182</ele>
        <time>1970-01-01T01:00:00Z</time>
      </trkpt>
      <trkpt lat="12.67248" lon="101.612678">
        <ele>4.36364</ele>
        <time>1970-01-01T01:00:00Z</time>
      </trkpt>
      <trkpt lat="12.672401" lon="101.612647">
        <ele>4.54545</ele>
        <time>1970-01-01T01:00:00Z</time>
      </trkpt>
      <trkpt lat="12.672321" lon="101.612621">
        <ele>4.7</ele>
        <time>1970-01-01T01:00:00Z</time>
      </trkpt>
      <trkpt lat="12.672242" lon="101.612573">
        <ele>4.88889</ele>
        <time>1970-01-01T01:00:00Z</time>
      </trkpt>
      <trkpt lat="12.672156" lon="101.612547">
        <ele>5</ele>
        <time>1970-01-01T01:00:00Z</time>
      </trkpt>
      <trkpt lat="12.672069" lon="101.612538">
        <ele>5</ele>
        <time>1970-01-01T01:00:00Z</time>
      </trkpt>
      <trkpt lat="12.672057" lon="101.612524">
        <ele>5</ele>
        <time>1970-01-01T01:00:00Z</time>
      </trkpt>
    </trkseg>
  </trk>
</gpx>